| time (UTC) | temp C | wind direction | speed KPH | gust KPH | rain 1hr cm | rain 24hr cm | rain mn cm | humidity % | barometer mb |
| 20260508054528 | 9 | 126 | 1.6 | 3.2 | 0.00 | 0.00 | 0.00 | 82 | |
| 20260508053527 | 8 | 126 | 1.6 | 3.2 | 0.00 | 0.00 | 0.00 | 84 | |
| 20260508052528 | 8 | 122 | 1.6 | 3.2 | 0.00 | 0.00 | 0.00 | 86 | |
| 20260508051528 | 8 | 0.0 | 0.0 | 0.00 | 0.00 | 0.00 | 86 | ||
| 20260508050527 | 8 | 120 | 0.0 | 1.6 | 0.00 | 0.00 | 0.00 | 86 | |
| 20260508045528 | 8 | 120 | 1.6 | 3.2 | 0.00 | 0.00 | 0.00 | 86 | |
| 20260508044528 | 8 | 126 | 1.6 | 3.2 | 0.00 | 0.00 | 0.00 | 86 | |
| 20260508043528 | 8 | 122 | 0.0 | 4.8 | 0.00 | 0.00 | 0.00 | 85 | |
| 20260508042528 | 8 | 114 | 0.0 | 3.2 | 0.00 | 0.00 | 0.00 | 84 | |
| 20260508041528 | 8 | 0.0 | 0.0 | 0.00 | 0.00 | 0.00 | 84 | ||
| 20260508040527 | 8 | 0.0 | 0.0 | 0.00 | 0.00 | 0.00 | 83 | ||
| 20260508035527 | 8 | 0.0 | 0.0 | 0.00 | 0.00 | 0.00 | 83 | ||
| 20260508034527 | 9 | 114 | 1.6 | 3.2 | 0.00 | 0.00 | 0.00 | 82 | |
| 20260508033527 | 9 | 114 | 1.6 | 3.2 | 0.00 | 0.00 | 0.00 | 82 | |
| 20260508032527 | 9 | 108 | 0.0 | 3.2 | 0.00 | 0.00 | 0.00 | 81 | |
| 20260508031527 | 9 | 110 | 1.6 | 3.2 | 0.00 | 0.00 | 0.00 | 81 | |
| 20260508030527 | 9 | 114 | 1.6 | 3.2 | 0.00 | 0.00 | 0.00 | 81 | |
| 20260508025527 | 9 | 0.0 | 0.0 | 0.00 | 0.00 | 0.00 | 80 | ||
| 20260508024527 | 9 | 108 | 1.6 | 4.8 | 0.00 | 0.00 | 0.00 | 79 | |
| 20260508023527 | 10 | 48 | 3.2 | 4.8 | 0.00 | 0.00 | 0.00 | 78 | |
| 20260508022527 | 10 | 102 | 1.6 | 3.2 | 0.00 | 0.00 | 0.00 | 78 | |
| 20260508021527 | 10 | 96 | 1.6 | 4.8 | 0.00 | 0.00 | 0.00 | 78 | |
| 20260508020527 | 9 | 96 | 1.6 | 4.8 | 0.00 | 0.00 | 0.00 | 78 | |
| 20260508015527 | 9 | 78 | 0.0 | 3.2 | 0.00 | 0.00 | 0.00 | 79 | |
| 20260508014527 | 9 | 78 | 0.0 | 1.6 | 0.00 | 0.00 | 0.00 | 79 | |
| 20260508013527 | 9 | 78 | 0.0 | 3.2 | 0.00 | 0.00 | 0.00 | 79 | |
| 20260508012527 | 8 | 0.0 | 0.0 | 0.00 | 0.00 | 0.00 | 81 | ||
| 20260508011527 | 8 | 0.0 | 0.0 | 0.00 | 0.00 | 0.00 | 80 | ||
| 20260508010527 | 9 | 0.0 | 0.0 | 0.00 | 0.00 | 0.00 | 80 | ||
| 20260508005527 | 9 | 0.0 | 0.0 | 0.00 | 0.00 | 0.00 | 78 | ||
| 20260508004527 | 9 | 0.0 | 0.0 | 0.00 | 0.00 | 0.00 | 77 | ||
| 20260508003527 | 9 | 0.0 | 0.0 | 0.00 | 0.00 | 0.00 | 78 | ||
| 20260508002527 | 10 | 0.0 | 0.0 | 0.00 | 0.00 | 0.00 | 77 | ||
| 20260508001527 | 10 | 0.0 | 0.0 | 0.00 | 0.00 | 0.00 | 76 | ||
| 20260508000527 | 10 | 0.0 | 0.0 | 0.00 | 0.00 | 0.00 | 75 | ||
| 20260507235527 | 10 | 78 | 0.0 | 3.2 | 0.00 | 0.00 | 0.00 | 76 | |
| 20260507234527 | 10 | 9 | 0.0 | 3.2 | 0.00 | 0.00 | 0.00 | 76 | |
| 20260507233527 | 10 | 276 | 0.0 | 1.6 | 0.00 | 0.00 | 0.00 | 76 | |
| 20260507232527 | 11 | 276 | 0.0 | 4.8 | 0.00 | 0.00 | 0.00 | 74 | |
| 20260507231527 | 11 | 276 | 0.0 | 3.2 | 0.00 | 0.00 | 0.00 | 74 | |
| 20260507230527 | 11 | 63 | 1.6 | 4.8 | 0.00 | 0.00 | 0.00 | 76 | |
| 20260507225027 | 11 | 93 | 1.6 | 4.8 | 0.00 | 0.00 | 0.00 | 75 | |
| 20260507224027 | 11 | 102 | 0.0 | 3.2 | 0.00 | 0.00 | 0.00 | 74 | |
| 20260507223028 | 11 | 254 | 1.6 | 6.4 | 0.00 | 0.00 | 0.00 | 74 | |
| 20260507222027 | 10 | 258 | 0.0 | 3.2 | 0.00 | 0.00 | 0.00 | 78 | |
| 20260507221027 | 10 | 0.0 | 0.0 | 0.00 | 0.00 | 0.00 | 80 | ||
| 20260507220027 | 11 | 0.0 | 0.0 | 0.00 | 0.00 | 0.00 | 81 | ||
| 20260507215027 | 10 | 0.0 | 0.0 | 0.00 | 0.00 | 0.00 | 81 | ||
| 20260507214027 | 11 | 0.0 | 0.0 | 0.00 | 0.00 | 0.00 | 82 | ||
| 20260507213027 | 11 | 0.0 | 0.0 | 0.00 | 0.00 | 0.00 | 81 | ||
| 20260507212027 | 11 | 0.0 | 0.0 | 0.00 | 0.00 | 0.00 | 81 | ||
| 20260507211027 | 11 | 258 | 0.0 | 3.2 | 0.00 | 0.00 | 0.00 | 81 | |
| 20260507210027 | 11 | 0.0 | 0.0 | 0.00 | 0.00 | 0.00 | 81 | ||
| 20260507205027 | 11 | 258 | 0.0 | 1.6 | 0.00 | 0.00 | 0.00 | 81 | |
| 20260507204027 | 11 | 0.0 | 0.0 | 0.00 | 0.00 | 0.00 | 80 | ||
| 20260507203028 | 11 | 258 | 0.0 | 3.2 | 0.00 | 0.00 | 0.00 | 79 | |
| 20260507202027 | 11 | 258 | 0.0 | 3.2 | 0.00 | 0.00 | 0.00 | 79 | |
| 20260507201027 | 11 | 258 | 0.0 | 3.2 | 0.00 | 0.00 | 0.00 | 77 | |
| 20260507200027 | 11 | 258 | 0.0 | 1.6 | 0.00 | 0.00 | 0.00 | 74 | |
| 20260507195028 | 11 | 257 | 1.6 | 9.7 | 0.00 | 0.00 | 0.00 | 76 | |
| 20260507194028 | 11 | 126 | 0.0 | 3.2 | 0.00 | 0.00 | 0.00 | 83 | |
| 20260507193027 | 11 | 0.0 | 0.0 | 0.00 | 0.00 | 0.00 | 85 | ||
| 20260507192028 | 11 | 0.0 | 0.0 | 0.00 | 0.00 | 0.00 | 84 | ||
| 20260507191027 | 11 | 0.0 | 0.0 | 0.00 | 0.00 | 0.00 | 84 | ||
| 20260507190027 | 11 | 0.0 | 0.0 | 0.00 | 0.00 | 0.00 | 83 | ||
| 20260507185027 | 11 | 0.0 | 0.0 | 0.00 | 0.00 | 0.00 | 85 | ||
| 20260507184027 | 11 | 0.0 | 0.0 | 0.00 | 0.00 | 0.00 | 86 | ||
| 20260507183027 | 11 | 0.0 | 0.0 | 0.00 | 0.00 | 0.00 | 84 | ||
| 20260507182027 | 11 | 0.0 | 0.0 | 0.00 | 0.00 | 0.00 | 83 | ||
| 20260507181027 | 11 | 0.0 | 0.0 | 0.00 | 0.00 | 0.00 | 81 | ||
| 20260507180027 | 11 | 306 | 0.0 | 3.2 | 0.00 | 0.00 | 0.00 | 82 | |
| 20260507175027 | 12 | 306 | 0.0 | 3.2 | 0.00 | 0.00 | 0.00 | 81 | |
| 20260507174027 | 12 | 306 | 0.0 | 1.6 | 0.00 | 0.00 | 0.00 | 79 | |
| 20260507173027 | 12 | 0.0 | 0.0 | 0.00 | 0.00 | 0.00 | 77 | ||
| 20260507172027 | 12 | 304 | 0.0 | 3.2 | 0.00 | 0.00 | 0.00 | 73 | |
| 20260507171027 | 13 | 282 | 0.0 | 3.2 | 0.00 | 0.00 | 0.00 | 67 | |
| 20260507170027 | 13 | 0.0 | 0.0 | 0.00 | 0.00 | 0.00 | 61 | ||
| 20260507165027 | 14 | 0.0 | 0.0 | 0.00 | 0.00 | 0.00 | 59 | ||
| 20260507164027 | 14 | 282 | 0.0 | 3.2 | 0.00 | 0.00 | 0.00 | 57 | |
| 20260507163027 | 14 | 253 | 1.6 | 6.4 | 0.00 | 0.00 | 0.00 | 54 | |
| 20260507162027 | 15 | 0.0 | 0.0 | 0.00 | 0.00 | 0.00 | 52 | ||
| 20260507161027 | 15 | 270 | 0.0 | 3.2 | 0.00 | 0.00 | 0.00 | 50 | |
| 20260507160027 | 15 | 270 | 1.6 | 3.2 | 0.00 | 0.00 | 0.00 | 49 | |
| 20260507155028 | 15 | 273 | 1.6 | 4.8 | 0.00 | 0.00 | 0.00 | 49 | |
| 20260507154028 | 15 | 144 | 0.0 | 3.2 | 0.00 | 0.00 | 0.00 | 50 | |
| 20260507153028 | 15 | 264 | 0.0 | 3.2 | 0.00 | 0.00 | 0.00 | 49 | |
| 20260507152028 | 15 | 260 | 1.6 | 4.8 | 0.00 | 0.00 | 0.00 | 49 | |
| 20260507151028 | 15 | 258 | 1.6 | 3.2 | 0.00 | 0.00 | 0.00 | 48 | |
| 20260507150028 | 15 | 228 | 1.6 | 4.8 | 0.00 | 0.00 | 0.00 | 47 | |
| 20260507145028 | 15 | 261 | 1.6 | 4.8 | 0.00 | 0.00 | 0.00 | 47 | |
| 20260507144028 | 15 | 127 | 1.6 | 6.4 | 0.00 | 0.00 | 0.00 | 47 | |
| 20260507143028 | 15 | 217 | 0.0 | 3.2 | 0.00 | 0.00 | 0.00 | 46 | |
| 20260507142027 | 15 | 109 | 1.6 | 6.4 | 0.00 | 0.00 | 0.00 | 46 | |
| 20260507141027 | 16 | 240 | 1.6 | 4.8 | 0.00 | 0.00 | 0.00 | 46 | |
| 20260507140027 | 16 | 261 | 1.6 | 4.8 | 0.00 | 0.00 | 0.00 | 46 | |
| 20260507135027 | 16 | 187 | 1.6 | 3.2 | 0.00 | 0.00 | 0.00 | 44 | |
| 20260507134027 | 16 | 241 | 1.6 | 4.8 | 0.00 | 0.00 | 0.00 | 41 | |
| 20260507133027 | 16 | 110 | 1.6 | 4.8 | 0.00 | 0.00 | 0.00 | 41 | |
| 20260507132027 | 17 | 231 | 1.6 | 4.8 | 0.00 | 0.00 | 0.00 | 41 | |
| 20260507131027 | 17 | 141 | 3.2 | 6.4 | 0.00 | 0.00 | 0.00 | 40 | |
| 20260507130027 | 17 | 244 | 3.2 | 6.4 | 0.00 | 0.00 | 0.00 | 38 | |
| 20260507125027 | 17 | 231 | 1.6 | 6.4 | 0.00 | 0.00 | 0.00 | 39 | |
| 20260507124027 | 16 | 290 | 1.6 | 3.2 | 0.00 | 0.00 | 0.00 | 41 | |
| 20260507123027 | 16 | 108 | 3.2 | 8.0 | 0.00 | 0.00 | 0.00 | 41 | |
| 20260507122027 | 16 | 144 | 3.2 | 6.4 | 0.00 | 0.00 | 0.00 | 43 | |
| 20260507121027 | 15 | 128 | 1.6 | 6.4 | 0.00 | 0.00 | 0.00 | 46 | |
| 20260507120027 | 16 | 180 | 3.2 | 8.0 | 0.00 | 0.00 | 0.00 | 47 | |
| 20260507115027 | 16 | 219 | 1.6 | 4.8 | 0.00 | 0.00 | 0.00 | 46 | |
| 20260507114028 | 16 | 240 | 1.6 | 6.4 | 0.00 | 0.00 | 0.00 | 48 | |
| 20260507113027 | 16 | 254 | 1.6 | 6.4 | 0.00 | 0.00 | 0.00 | 51 | |
| 20260507112027 | 15 | 108 | 1.6 | 4.8 | 0.00 | 0.00 | 0.00 | 54 | |
| 20260507111027 | 14 | 107 | 1.6 | 3.2 | 0.00 | 0.00 | 0.00 | 58 | |
| 20260507110027 | 14 | 125 | 3.2 | 6.4 | 0.00 | 0.00 | 0.00 | 59 | |
| 20260507105027 | 14 | 286 | 1.6 | 9.7 | 0.00 | 0.00 | 0.00 | 62 | |
| 20260507104027 | 13 | 134 | 3.2 | 9.7 | 0.00 | 0.00 | 0.00 | 66 | |
| 20260507103027 | 12 | 138 | 1.6 | 4.8 | 0.00 | 0.00 | 0.00 | 66 | |
| 20260507102027 | 12 | 43 | 1.6 | 4.8 | 0.00 | 0.00 | 0.00 | 66 | |
| 20260507101027 | 12 | 262 | 1.6 | 6.4 | 0.00 | 0.00 | 0.00 | 67 | |
| 20260507100027 | 12 | 122 | 1.6 | 3.2 | 0.00 | 0.00 | 0.00 | 68 | |
| 20260507095027 | 11 | 245 | 1.6 | 6.4 | 0.00 | 0.00 | 0.00 | 71 | |
| 20260507094027 | 11 | 5 | 3.2 | 9.7 | 0.00 | 0.00 | 0.00 | 73 | |
| 20260507093027 | 11 | 83 | 1.6 | 4.8 | 0.00 | 0.00 | 0.00 | 74 | |
| 20260507092027 | 10 | 187 | 1.6 | 6.4 | 0.00 | 0.00 | 0.00 | 75 | |
| 20260507091027 | 10 | 129 | 1.6 | 6.4 | 0.00 | 0.00 | 0.00 | 78 | |
| 20260507090027 | 10 | 73 | 1.6 | 4.8 | 0.00 | 0.00 | 0.00 | 78 | |
| 20260507085027 | 9 | 154 | 1.6 | 6.4 | 0.00 | 0.00 | 0.00 | 80 | |
| 20260507084027 | 9 | 270 | 1.6 | 3.2 | 0.00 | 0.00 | 0.00 | 81 | |
| 20260507083027 | 8 | 266 | 1.6 | 6.4 | 0.00 | 0.00 | 0.00 | 83 | |
| 20260507082027 | 8 | 98 | 3.2 | 6.4 | 0.00 | 0.00 | 0.00 | 83 | |
| 20260507081028 | 8 | 148 | 1.6 | 3.2 | 0.00 | 0.00 | 0.00 | 84 | |
| 20260507080027 | 8 | 217 | 1.6 | 3.2 | 0.00 | 0.00 | 0.00 | 84 | |
| 20260507075027 | 7 | 67 | 3.2 | 6.4 | 0.00 | 0.00 | 0.00 | 85 | |
| 20260507074027 | 7 | 114 | 3.2 | 6.4 | 0.00 | 0.00 | 0.00 | 85 | |
| 20260507073027 | 7 | 33 | 1.6 | 4.8 | 0.00 | 0.00 | 0.00 | 87 | |
| 20260507072027 | 7 | 104 | 1.6 | 3.2 | 0.00 | 0.00 | 0.00 | 88 | |
| 20260507071027 | 7 | 246 | 1.6 | 6.4 | 0.00 | 0.00 | 0.00 | 88 | |
| 20260507070027 | 7 | 111 | 3.2 | 8.0 | 0.00 | 0.00 | 0.00 | 88 | |
| 20260507065027 | 7 | 101 | 3.2 | 8.0 | 0.00 | 0.00 | 0.00 | 89 | |
| 20260507064027 | 7 | 124 | 3.2 | 4.8 | 0.00 | 0.00 | 0.00 | 89 | |
| 20260507063027 | 6 | 116 | 1.6 | 3.2 | 0.00 | 0.00 | 0.00 | 89 | |
| 20260507062027 | 6 | 96 | 1.6 | 4.8 | 0.00 | 0.00 | 0.00 | 89 | |
| 20260507061027 | 6 | 150 | 1.6 | 6.4 | 0.00 | 0.00 | 0.00 | 90 | |
| 20260507060027 | 6 | 182 | 1.6 | 6.4 | 0.00 | 0.00 | 0.00 | 90 |